SCP
0 0 0 0 0 0 0 0 0 0 0 0 0 0 0 0 0 0 0 0 0 0 0 0 0 0 0 0 0 0 0 0 0 0 0 0 0 0 0 0 0 0 0 0 0
0 0 0 0 0 0 0 0 0 0 0 0 0 0 0 0 0 0 0 0 0 0 0 0 0 0 0 0 0 0 0 0 0 0 0 0 0 0 0 0 0 0 0 0 0
0 0 0 0 0 0 0 0 0 0 0 0 0 0 0 0 0 0 -0 -0 -0 0 0 0 0 0 0 0 0 0 0 0 0 0 0 0 0 0 0 0 0 0 0 0 0
0 0 0 0 0 0 0 0 0 0 0 0 0 0 0 0 0 0 0 -0 -0 0 0 0 0 0 0 0 0 0 0 0 0 0 0 0 0 0 0 0 0 0 0 0 0
0 0 0 0 0 0 0 0 0 0 0 0 0 0 0 0 0 0 0 0 0 0 0 0 0 0 0 0 0 0 0 0 0 0 0 0 0 0 0 0 0 0 0 0 0
0 0 0 0 0 0 0 0 0 0 0 0 0 0 0 0 0 0 0 0 0 0 0 0 0 0 0 0 0 0 0 0 0 0 0 0 0 0 0 0 0 0 0 0 0
0 0 0 0 0 0 0 0 0 0 0 0 0 0 0 0 0 0 0 0 0 0 0 -0 0 0 0 0 0 0 0 0 0 0 0 0 0 0 0 0 0 0 0 -0 0
0 0 0 0 0 0 0 0 0 0 0 0 0 0 0 0 0 0 0 0 0 0 0 0 0 0 0 0 0 0 0 0 0 0 0 0 0 0 0 0 0 0 0 0 -0
0 0 0 0 0 0 0 0 0 0 0 0 0 0 0 0 0 0 0 0 0 0 0 0 0 0 0 0 0 0 0 0 0 0 0 0 0 0 0 0 0 0 0 0 0
0 0 0 0 0 0 0 0 0 0 0 0 0 0 0 0 0 0 0 0 0 0 0 0 0 0 0 0 0 0 0 0 0 0 0 0 0 0 0 0 0 0 0 0 0
-0 -0 0 0 0 0 0 0 0 0 0 0 0 0 0 0 0 0 0 0 0 0 0 0 0 0 0 0 0 0 0 0 0 0 0 0 0 0 0 0 -0 0 0 0 0
-0 -0 -0 -0 -0 -0 -0 0 0 0 0 0 0 0 0 0 0 0 0 0 0 0 0 0 0 0 0 0 0 0 0 0 0 0 0 0 0 0 0 0 0 0 0 0 0
-0 -0 0 0 -0 0 -0 0 -0 -0 0 0 0 0 0 0 0 0 0 0 0 0 0 0 0 0 0 0 0 0 0 0 0 0 0 0 0 0 0 0 0 0 0 0 0
-0 -0 0 0 0 0 0 -0 -0 0 0 0 0 0 0 0 0 0 0 0 0 0 0 0 0 0 0 0 0 0 0 0 0 0 0 0 0 0 0 0 0 0 0 0 0
-0 0 0 0 0 0 -0 -0 -0 0 0 0 0 0 0 0 0 0 0 0 0 0 0 0 0 0 0 0 0 0 0 0 0 0 0 0 0 0 -0 0 0 0 0 0 0
-0 0 -0 0 0 0 0 -0 0 0 0 0 0 0 0 0 0 0 0 0 0 0 0 0 0 0 0 0 0 0 0 0 0 0 0 0 0 0 -0 -0 0 0 0 0 0
0 0 0 -0 0 0 0 0 0 0 0 0 0 0 0 0 0 0 0 0 0 0 0 0 0 0 0 0 0 0 0 0 0 0 0 0 0 0 0 0 0 0 0 0 0
0 0 0 0 0 0 0 0 0 0 0 0 0 0 0 0 0 0 0 0 0 0 0 0 0 0 0 0 0 0 0 0 0 0 0 0 0 0 -0 0 0 0 0 0 0
0 0 0 0 0 0 0 0 0 0 0 0 0 0 0 0 0 0 0 0 0 0 0 0 0 0 0 0 0 0 0 0 0 0 0 0 0 0 0 0 0 0 0 0 0
0 0 0 0 0 0 -0 0 0 0 0 0 0 0 0 0 0 0 0 0 0 0 0 0 0 0 0 0 0 0 0 0 0 0 0 0 0 0 0 0 0 0 0 0 0
0 0 0 0 0 0 0 0 0 0 0 0 0 0 0 0 0 0 0 0 0 0 0 0 0 0 0 0 0 0 0 0 0 0 0 0 0 0 0 0 0 0 0 0 0
0 0 0 0 0 0 0 0 0 0 0 0 0 0 0 0 0 0 0 0 -0 0 0 0 0 0 -0 0 0 0 0 0 0 0 0 0 0 0 0 0 0 0 0 0 0
0 0 0 0 0 0 0 0 0 0 0 0 0 0 0 0 0 0 0 0 0 0 0 0 0 0 0 0 0 0 0 0 0 0 0 0 0 0 0 0 0 0 0 0 0
-0 -0 0 0 0 0 0 0 0 0 0 0 0 -0 -0 0 0 0 0 0 0 0 0 0 0 0 -0 0 0 -0 -0 0 0 0 0 0 0 -0 0 0 0 0 0 0 0
-0 0 -0 0 0 -0 -0 0 0 0 0 0 -0 0 0 0 0 0 0 0 0 0 0 0 0 0 -0 -0 -0 0 0 0 -0 -0 0 -0 0 -0 0 0 0 0 0 0 0
0 0 -0 -0 -0 -0 -0 -0 0 0 0 0 -0 -0 0 0 0 0 0 0 0 0 0 0 0 0 0 -0 -0 -0 -0 -0 -0 -0 -0 -0 -0 0 0 0 0 0 0 0 0
0 -0 -0 -0 -0 0 0 -0 -0 0 -0 -0 0 -0 0 0 0 0 0 0 0 0 0 0 0 0 0 0 0 0 -0 -0 0 0 0 0 0 0 0 0 0 0 0 0 0
Wind_Speed_500mb
43 43 41 39 42 35 30 26 27 32 35 29 25 24 20 18 20 29 44 42 41 29 10 15 28 32 25 16 30 26 4 9 14 16 14 40 14 22 9 12 15 4 6 35 30
45 45 46 44 43 36 34 33 29 30 36 32 26 20 18 16 26 38 39 16 27 39 26 21 22 28 18 20 13 14 10 13 9 18 14 16 8 20 4 13 8 15 10 35 29
48 47 46 46 46 42 37 38 28 31 30 35 28 18 17 13 13 30 28 36 32 27 34 28 26 28 29 27 28 9 10 7 26 41 19 8 13 17 9 5 17 22 22 29 29
48 46 47 46 44 44 43 42 31 25 22 40 30 19 20 18 11 5 22 28 34 37 32 40 28 14 16 14 30 12 17 41 38 52 32 8 13 15 11 9 20 18 24 21 37
46 47 47 50 49 45 43 43 40 25 30 35 34 22 25 24 24 4 13 36 33 30 39 44 26 20 11 14 30 11 11 39 40 39 33 20 14 15 30 35 32 34 35 28 25
40 47 50 51 46 48 43 46 42 32 22 28 29 27 30 16 17 23 15 31 33 33 39 42 19 31 12 18 12 6 15 12 17 27 32 19 15 22 12 43 49 47 55 51 37
49 46 52 48 47 47 45 42 41 38 21 28 32 33 25 36 14 21 23 14 10 28 41 42 24 22 15 3 4 4 7 13 17 27 13 17 15 16 45 52 54 63 61 67 58
46 45 43 44 43 41 40 37 37 41 29 30 32 30 17 37 24 27 32 26 25 17 37 37 24 18 7 5 5 7 5 3 15 26 23 24 17 17 45 51 55 72 73 73 70
45 42 39 37 39 41 42 36 34 36 28 28 38 27 13 22 51 34 28 33 18 12 31 32 24 10 9 8 4 2 6 12 13 15 10 22 7 30 48 47 44 58 71 68 69
43 38 38 38 41 40 32 32 39 33 32 29 27 19 20 26 50 44 28 29 25 24 22 14 8 5 5 6 12 10 8 8 10 6 2 10 14 15 45 41 41 47 42 47 59
39 37 40 42 39 35 35 36 4 10 30 15 25 8 13 30 35 43 42 27 27 22 7 12 7 13 17 10 10 4 4 8 10 12 8 12 14 19 36 43 49 51 64 68 66
42 40 42 40 35 31 30 14 11 5 18 35 32 9 52 40 20 42 46 21 15 14 12 8 7 11 13 14 16 11 10 10 14 9 11 19 38 31 34 48 58 65 60 70 63
46 43 42 38 36 29 14 16 25 25 5 32 25 27 39 22 15 47 40 20 13 15 17 11 4 20 11 6 5 3 6 8 10 12 10 15 20 17 15 45 59 63 71 74 75
45 39 34 34 32 18 17 14 11 24 5 11 16 16 31 23 10 44 39 26 6 18 14 2 2 7 7 8 6 2 9 3 9 8 7 11 13 15 16 19 12 41 53 64 71
50 49 56 41 33 27 7 20 8 1 6 17 11 34 29 1 40 28 36 8 16 19 10 12 9 10 3 3 7 6 10 10 9 8 9 6 4 14 10 12 16 13 25 44 55
59 58 53 37 49 31 18 8 10 4 6 10 14 19 14 24 9 29 12 10 7 10 15 9 7 6 10 4 6 8 8 9 8 6 5 17 15 8 6 12 1 9 8 6 14
55 38 28 18 6 24 26 20 5 7 1 13 18 19 25 9 13 14 11 7 8 9 6 10 4 4 5 8 5 10 10 6 7 3 12 3 9 15 16 22 13 18 28 24 24
22 23 35 8 17 39 36 5 8 10 12 12 22 26 12 16 8 11 14 8 6 8 8 9 8 16 10 11 12 9 10 8 12 7 8 3 14 12 21 28 28 25 29 26 29
25 26 39 32 33 36 4 6 7 8 13 21 28 18 15 9 13 8 7 9 9 7 10 8 7 8 13 6 11 7 9 7 2 4 5 10 14 14 17 18 17 16 22 32 38
32 39 36 28 21 18 3 6 6 5 35 20 9 7 12 14 10 12 15 14 11 18 6 3 7 4 5 6 5 11 8 5 4 2 10 11 10 17 12 8 14 17 21 26 32
27 15 21 18 11 7 5 10 5 42 11 4 9 13 16 12 8 12 25 8 23 20 15 3 6 2 10 11 14 6 4 4 4 7 7 8 11 10 11 8 11 10 21 32 43
20 7 13 13 6 2 4 5 6 11 8 7 10 15 20 20 9 12 16 3 40 30 15 9 9 7 18 11 16 9 10 9 6 10 9 3 18 25 30 13 16 44 59 83 68
10 6 16 19 7 5 9 2 9 15 11 9 12 11 26 13 11 8 10 6 36 16 17 11 1 1 8 5 4 9 14 12 16 1 25 7 15 7 30 43 63 43 64 61 43
5 5 9 10 5 4 8 8 9 16 9 11 10 26 11 7 4 13 6 4 12 9 26 24 8 11 10 6 7 5 9 11 19 10 20 32 51 55 48 44 46 54 44 53 54
10 3 6 5 4 4 4 5 7 6 9 15 11 8 11 6 8 9 9 8 8 7 7 6 4 3 12 16 11 15 20 22 23 32 22 47 44 53 48 45 49 31 18 31 38
9 9 18 12 6 4 4 5 5 6 10 8 9 14 15 9 3 10 14 9 9 3 6 3 4 1 11 19 16 13 23 28 30 35 37 47 53 40 40 48 47 31 26 26 27
12 9 6 16 4 2 6 9 2 5 8 8 6 10 13 6 12 15 15 12 19 15 12 11 7 2 9 9 14 7 12 20 11 16 18 18 27 33 33 18 23 32 29 27 31
Wind_Direction_500mb
337 332 334 329 308 294 298 296 273 275 264 275 287 281 272 259 256 237 234 236 211 161 166 205 205 207 192 234 228 229 175 210 216 228 251 297 350 323 171 159 182 139 304 152 156
332 330 330 327 327 320 299 295 278 269 257 258 275 278 261 254 257 249 248 243 213 204 215 194 194 191 207 216 225 189 201 225 225 232 265 269 345 344 193 167 228 261 131 164 168
325 327 326 323 323 323 314 292 292 268 265 250 266 260 241 239 277 261 233 199 178 201 211 202 202 205 213 228 221 208 187 237 269 265 296 300 309 326 11 231 211 223 224 200 197
317 321 320 318 320 319 315 312 288 267 269 247 250 237 216 202 206 269 197 195 195 203 212 201 228 238 183 213 235 239 229 236 261 271 286 279 297 323 290 257 304 278 262 277 231
311 315 311 309 314 314 312 311 299 278 262 246 232 221 204 209 228 124 181 196 187 197 197 193 222 235 183 197 240 218 242 254 258 273 304 258 260 261 283 280 263 267 270 275 266
322 314 310 307 305 308 308 305 307 265 263 239 210 212 206 220 239 228 176 197 202 196 192 184 215 223 244 253 203 291 228 262 281 301 304 276 248 251 263 259 270 265 262 263 259
308 309 308 308 308 308 308 302 301 264 254 222 210 208 218 210 201 209 182 157 201 204 196 189 219 198 196 247 20 66 19 338 296 275 261 323 275 232 248 257 261 265 259 261 267
319 316 314 312 311 311 308 301 299 250 260 208 196 195 233 220 168 185 178 168 183 197 199 200 200 174 149 144 43 61 45 301 250 234 238 203 258 247 246 248 252 255 254 252 256
324 321 320 318 318 312 313 305 302 246 245 210 181 178 226 211 203 198 183 197 178 171 182 205 177 173 149 144 115 193 226 220 299 236 178 182 220 243 254 261 254 256 250 248 245
323 325 322 326 321 321 316 299 311 239 264 227 162 179 222 200 192 194 177 174 172 139 127 141 118 99 174 151 192 205 234 257 245 316 344 260 261 275 282 284 279 274 258 247 248
329 327 326 324 324 321 323 323 355 222 228 215 179 224 245 181 180 193 179 172 164 145 134 149 121 179 190 219 242 319 250 277 271 282 305 240 255 263 273 278 274 267 265 261 255
330 325 325 323 318 318 310 293 297 342 310 186 189 113 139 141 133 168 164 154 159 159 120 86 190 230 221 224 243 287 262 284 296 319 8 316 289 274 259 257 247 252 250 251 257
321 318 315 306 315 319 313 295 285 300 286 183 189 169 151 142 149 174 168 158 140 143 144 144 197 200 228 297 230 289 275 275 259 334 349 335 289 248 273 244 251 246 245 248 252
322 319 314 299 300 282 339 343 299 287 290 129 168 152 156 142 113 169 160 139 151 153 162 298 102 112 177 225 192 269 5 2 40 47 251 71 290 268 266 270 254 239 236 239 242
325 318 309 291 263 274 247 342 60 322 162 162 126 150 171 111 130 187 178 108 152 146 134 197 186 134 141 189 163 206 80 58 44 39 10 282 228 285 261 262 241 259 247 243 240
322 322 317 314 251 243 173 224 63 87 163 116 135 146 123 135 75 155 141 119 114 125 152 61 69 110 189 192 84 104 67 25 43 74 321 224 180 284 209 228 91 217 212 206 237
333 331 331 301 212 162 152 153 50 225 232 117 133 138 123 101 110 136 136 104 129 114 138 173 195 109 76 93 53 90 73 353 345 289 235 74 206 252 279 299 227 251 273 244 214
345 28 30 83 149 153 148 83 221 50 64 133 130 131 107 123 102 133 140 149 313 79 99 140 318 157 187 174 180 160 153 172 227 221 278 28 232 256 235 254 273 311 265 243 246
68 63 49 72 126 138 132 68 325 9 117 127 114 128 131 126 124 125 150 174 193 191 130 124 289 129 156 130 125 192 202 196 318 268 41 241 303 308 278 320 360 1 6 2 294
67 66 63 70 122 159 347 320 275 123 113 136 76 170 148 155 111 139 165 195 202 196 183 12 111 123 138 101 264 161 169 87 356 330 274 277 259 242 317 329 330 344 341 0 334
66 53 56 70 93 350 18 341 25 120 27 319 156 135 137 162 125 164 182 231 190 187 171 139 97 236 128 206 189 172 242 120 120 175 223 297 258 225 225 260 330 330 9 349 344
50 59 41 31 63 17 344 303 320 243 329 24 142 106 152 169 134 181 184 243 188 170 185 165 122 191 222 226 192 164 184 175 152 262 237 200 271 265 269 297 317 313 318 301 290
60 337 18 11 48 21 286 333 17 2 347 17 40 128 139 169 131 186 101 47 180 156 158 161 258 349 328 25 192 188 208 208 221 255 245 266 265 317 311 307 306 306 301 294 305
50 25 351 11 74 103 46 6 343 340 6 14 70 119 143 153 156 161 105 63 119 101 174 147 161 172 197 200 106 237 229 211 203 237 269 247 278 285 288 300 303 302 297 274 269
29 14 350 301 289 202 214 231 348 51 15 20 21 104 141 94 85 108 96 89 66 105 74 100 156 319 278 264 228 222 236 236 237 250 252 278 278 284 298 302 301 295 296 318 263
50 6 344 288 186 298 171 249 344 31 27 0 93 71 54 87 28 149 127 165 185 148 123 95 253 318 283 260 241 248 246 243 244 252 255 264 275 282 305 320 331 262 252 282 291
56 5 314 284 292 7 231 186 250 100 8 47 77 94 70 44 50 61 84 87 149 147 163 162 151 167 265 329 323 283 237 230 215 226 245 264 276 300 299 313 353 344 330 302 281
Wind_Speed_850mb
43 43 41 39 42 35 30 26 27 32 35 29 25 24 20 18 20 29 44 42 41 29 10 15 28 32 25 16 30 26 4 9 14 16 14 40 14 22 9 12 15 4 6 35 30
45 45 46 44 43 36 34 33 29 30 36 32 26 20 18 16 26 38 39 16 27 39 26 21 22 28 18 20 13 14 10 13 9 18 14 16 8 20 4 13 8 15 10 35 29
48 47 46 46 46 42 37 38 28 31 30 35 28 18 17 13 13 30 28 36 32 27 34 28 26 28 29 27 28 9 10 7 26 41 19 8 13 17 9 5 17 22 22 29 29
48 46 47 46 44 44 43 42 31 25 22 40 30 19 20 18 11 5 22 28 34 37 32 40 28 14 16 14 30 12 17 41 38 52 32 8 13 15 11 9 20 18 24 21 37
46 47 47 50 49 45 43 43 40 25 30 35 34 22 25 24 24 4 13 36 33 30 39 44 26 20 11 14 30 11 11 39 40 39 33 20 14 15 30 35 32 34 35 28 25
40 47 50 51 46 48 43 46 42 32 22 28 29 27 30 16 17 23 15 31 33 33 39 42 19 31 12 18 12 6 15 12 17 27 32 19 15 22 12 43 49 47 55 51 37
49 46 52 48 47 47 45 42 41 38 21 28 32 33 25 36 14 21 23 14 10 28 41 42 24 22 15 3 4 4 7 13 17 27 13 17 15 16 45 52 54 63 61 67 58
46 45 43 44 43 41 40 37 37 41 29 30 32 30 17 37 24 27 32 26 25 17 37 37 24 18 7 5 5 7 5 3 15 26 23 24 17 17 45 51 55 72 73 73 70
45 42 39 37 39 41 42 36 34 36 28 28 38 27 13 22 51 34 28 33 18 12 31 32 24 10 9 8 4 2 6 12 13 15 10 22 7 30 48 47 44 58 71 68 69
43 38 38 38 41 40 32 32 39 33 32 29 27 19 20 26 50 44 28 29 25 24 22 14 8 5 5 6 12 10 8 8 10 6 2 10 14 15 45 41 41 47 42 47 59
39 37 40 42 39 35 35 36 4 10 30 15 25 8 13 30 35 43 42 27 27 22 7 12 7 13 17 10 10 4 4 8 10 12 8 12 14 19 36 43 49 51 64 68 66
42 40 42 40 35 31 30 14 11 5 18 35 32 9 52 40 20 42 46 21 15 14 12 8 7 11 13 14 16 11 10 10 14 9 11 19 38 31 34 48 58 65 60 70 63
46 43 42 38 36 29 14 16 25 25 5 32 25 27 39 22 15 47 40 20 13 15 17 11 4 20 11 6 5 3 6 8 10 12 10 15 20 17 15 45 59 63 71 74 75
45 39 34 34 32 18 17 14 11 24 5 11 16 16 31 23 10 44 39 26 6 18 14 2 2 7 7 8 6 2 9 3 9 8 7 11 13 15 16 19 12 41 53 64 71
50 49 56 41 33 27 7 20 8 1 6 17 11 34 29 1 40 28 36 8 16 19 10 12 9 10 3 3 7 6 10 10 9 8 9 6 4 14 10 12 16 13 25 44 55
59 58 53 37 49 31 18 8 10 4 6 10 14 19 14 24 9 29 12 10 7 10 15 9 7 6 10 4 6 8 8 9 8 6 5 17 15 8 6 12 1 9 8 6 14
55 38 28 18 6 24 26 20 5 7 1 13 18 19 25 9 13 14 11 7 8 9 6 10 4 4 5 8 5 10 10 6 7 3 12 3 9 15 16 22 13 18 28 24 24
22 23 35 8 17 39 36 5 8 10 12 12 22 26 12 16 8 11 14 8 6 8 8 9 8 16 10 11 12 9 10 8 12 7 8 3 14 12 21 28 28 25 29 26 29
25 26 39 32 33 36 4 6 7 8 13 21 28 18 15 9 13 8 7 9 9 7 10 8 7 8 13 6 11 7 9 7 2 4 5 10 14 14 17 18 17 16 22 32 38
32 39 36 28 21 18 3 6 6 5 35 20 9 7 12 14 10 12 15 14 11 18 6 3 7 4 5 6 5 11 8 5 4 2 10 11 10 17 12 8 14 17 21 26 32
27 15 21 18 11 7 5 10 5 42 11 4 9 13 16 12 8 12 25 8 23 20 15 3 6 2 10 11 14 6 4 4 4 7 7 8 11 10 11 8 11 10 21 32 43
20 7 13 13 6 2 4 5 6 11 8 7 10 15 20 20 9 12 16 3 40 30 15 9 9 7 18 11 16 9 10 9 6 10 9 3 18 25 30 13 16 44 59 83 68
10 6 16 19 7 5 9 2 9 15 11 9 12 11 26 13 11 8 10 6 36 16 17 11 1 1 8 5 4 9 14 12 16 1 25 7 15 7 30 43 63 43 64 61 43
5 5 9 10 5 4 8 8 9 16 9 11 10 26 11 7 4 13 6 4 12 9 26 24 8 11 10 6 7 5 9 11 19 10 20 32 51 55 48 44 46 54 44 53 54
10 3 6 5 4 4 4 5 7 6 9 15 11 8 11 6 8 9 9 8 8 7 7 6 4 3 12 16 11 15 20 22 23 32 22 47 44 53 48 45 49 31 18 31 38
9 9 18 12 6 4 4 5 5 6 10 8 9 14 15 9 3 10 14 9 9 3 6 3 4 1 11 19 16 13 23 28 30 35 37 47 53 40 40 48 47 31 26 26 27
12 9 6 16 4 2 6 9 2 5 8 8 6 10 13 6 12 15 15 12 19 15 12 11 7 2 9 9 14 7 12 20 11 16 18 18 27 33 33 18 23 32 29 27 31
Wind_Direction_850mb
337 332 334 329 308 294 298 296 273 275 264 275 287 281 272 259 256 237 234 236 211 161 166 205 205 207 192 234 228 229 175 210 216 228 251 297 350 323 171 159 182 139 304 152 156
332 330 330 327 327 320 299 295 278 269 257 258 275 278 261 254 257 249 248 243 213 204 215 194 194 191 207 216 225 189 201 225 225 232 265 269 345 344 193 167 228 261 131 164 168
325 327 326 323 323 323 314 292 292 268 265 250 266 260 241 239 277 261 233 199 178 201 211 202 202 205 213 228 221 208 187 237 269 265 296 300 309 326 11 231 211 223 224 200 197
317 321 320 318 320 319 315 312 288 267 269 247 250 237 216 202 206 269 197 195 195 203 212 201 228 238 183 213 235 239 229 236 261 271 286 279 297 323 290 257 304 278 262 277 231
311 315 311 309 314 314 312 311 299 278 262 246 232 221 204 209 228 124 181 196 187 197 197 193 222 235 183 197 240 218 242 254 258 273 304 258 260 261 283 280 263 267 270 275 266
322 314 310 307 305 308 308 305 307 265 263 239 210 212 206 220 239 228 176 197 202 196 192 184 215 223 244 253 203 291 228 262 281 301 304 276 248 251 263 259 270 265 262 263 259
308 309 308 308 308 308 308 302 301 264 254 222 210 208 218 210 201 209 182 157 201 204 196 189 219 198 196 247 20 66 19 338 296 275 261 323 275 232 248 257 261 265 259 261 267
319 316 314 312 311 311 308 301 299 250 260 208 196 195 233 220 168 185 178 168 183 197 199 200 200 174 149 144 43 61 45 301 250 234 238 203 258 247 246 248 252 255 254 252 256
324 321 320 318 318 312 313 305 302 246 245 210 181 178 226 211 203 198 183 197 178 171 182 205 177 173 149 144 115 193 226 220 299 236 178 182 220 243 254 261 254 256 250 248 245
323 325 322 326 321 321 316 299 311 239 264 227 162 179 222 200 192 194 177 174 172 139 127 141 118 99 174 151 192 205 234 257 245 316 344 260 261 275 282 284 279 274 258 247 248
329 327 326 324 324 321 323 323 355 222 228 215 179 224 245 181 180 193 179 172 164 145 134 149 121 179 190 219 242 319 250 277 271 282 305 240 255 263 273 278 274 267 265 261 255
330 325 325 323 318 318 310 293 297 342 310 186 189 113 139 141 133 168 164 154 159 159 120 86 190 230 221 224 243 287 262 284 296 319 8 316 289 274 259 257 247 252 250 251 257
321 318 315 306 315 319 313 295 285 300 286 183 189 169 151 142 149 174 168 158 140 143 144 144 197 200 228 297 230 289 275 275 259 334 349 335 289 248 273 244 251 246 245 248 252
322 319 314 299 300 282 339 343 299 287 290 129 168 152 156 142 113 169 160 139 151 153 162 298 102 112 177 225 192 269 5 2 40 47 251 71 290 268 266 270 254 239 236 239 242
325 318 309 291 263 274 247 342 60 322 162 162 126 150 171 111 130 187 178 108 152 146 134 197 186 134 141 189 163 206 80 58 44 39 10 282 228 285 261 262 241 259 247 243 240
322 322 317 314 251 243 173 224 63 87 163 116 135 146 123 135 75 155 141 119 114 125 152 61 69 110 189 192 84 104 67 25 43 74 321 224 180 284 209 228 91 217 212 206 237
333 331 331 301 212 162 152 153 50 225 232 117 133 138 123 101 110 136 136 104 129 114 138 173 195 109 76 93 53 90 73 353 345 289 235 74 206 252 279 299 227 251 273 244 214
345 28 30 83 149 153 148 83 221 50 64 133 130 131 107 123 102 133 140 149 313 79 99 140 318 157 187 174 180 160 153 172 227 221 278 28 232 256 235 254 273 311 265 243 246
68 63 49 72 126 138 132 68 325 9 117 127 114 128 131 126 124 125 150 174 193 191 130 124 289 129 156 130 125 192 202 196 318 268 41 241 303 308 278 320 360 1 6 2 294
67 66 63 70 122 159 347 320 275 123 113 136 76 170 148 155 111 139 165 195 202 196 183 12 111 123 138 101 264 161 169 87 356 330 274 277 259 242 317 329 330 344 341 0 334
66 53 56 70 93 350 18 341 25 120 27 319 156 135 137 162 125 164 182 231 190 187 171 139 97 236 128 206 189 172 242 120 120 175 223 297 258 225 225 260 330 330 9 349 344
50 59 41 31 63 17 344 303 320 243 329 24 142 106 152 169 134 181 184 243 188 170 185 165 122 191 222 226 192 164 184 175 152 262 237 200 271 265 269 297 317 313 318 301 290
60 337 18 11 48 21 286 333 17 2 347 17 40 128 139 169 131 186 101 47 180 156 158 161 258 349 328 25 192 188 208 208 221 255 245 266 265 317 311 307 306 306 301 294 305
50 25 351 11 74 103 46 6 343 340 6 14 70 119 143 153 156 161 105 63 119 101 174 147 161 172 197 200 106 237 229 211 203 237 269 247 278 285 288 300 303 302 297 274 269
29 14 350 301 289 202 214 231 348 51 15 20 21 104 141 94 85 108 96 89 66 105 74 100 156 319 278 264 228 222 236 236 237 250 252 278 278 284 298 302 301 295 296 318 263
50 6 344 288 186 298 171 249 344 31 27 0 93 71 54 87 28 149 127 165 185 148 123 95 253 318 283 260 241 248 246 243 244 252 255 264 275 282 305 320 331 262 252 282 291
56 5 314 284 292 7 231 186 250 100 8 47 77 94 70 44 50 61 84 87 149 147 163 162 151 167 265 329 323 283 237 230 215 226 245 264 276 300 299 313 353 344 330 302 281